| time (UTC) | temp C | wind direction | speed KPH | gust KPH | rain 1hr cm | rain 24hr cm | rain mn cm | humidity % | barometer mb |
| 20260504150522 | 22 | 84 | 6.4 | 11.3 | 0.00 | 0.00 | 0.00 | 56 | 1003.7 |
| 20260504140533 | 17 | 131 | 4.8 | 6.4 | 0.00 | 0.00 | 0.00 | 68 | 1004.6 |
| 20260504130530 | 13 | 140 | 1.6 | 3.2 | 0.00 | 0.00 | 0.00 | 79 | 1004.7 |
| 20260504110525 | 5 | 0.0 | 0.0 | 0.00 | 0.00 | 0.00 | 99 | 1005.3 | |
| 20260504100523 | 6 | 0.0 | 0.0 | 0.00 | 0.00 | 0.00 | 91 | 1005.8 | |
| 20260504081516 | 6 | 77 | 1.6 | 3.2 | 0.00 | 0.00 | 0.00 | 99 | 1007.0 |
| 20260504080518 | 6 | 0.0 | 0.0 | 0.00 | 0.00 | 0.00 | 99 | 1007.1 | |
| 20260504050530 | 8 | 263 | 1.6 | 3.2 | 0.00 | 0.00 | 0.00 | 89 | 1008.8 |
| 20260504045533 | 8 | 135 | 0.0 | 1.6 | 0.00 | 0.00 | 0.00 | 85 | 1008.9 |
| 20260504044518 | 9 | 0.0 | 0.0 | 0.00 | 0.00 | 0.00 | 83 | 1008.9 | |
| 20260504043520 | 9 | 220 | 1.6 | 3.2 | 0.00 | 0.00 | 0.00 | 84 | 1009.1 |
| 20260504042523 | 9 | 152 | 1.6 | 3.2 | 0.00 | 0.00 | 0.00 | 84 | 1009.2 |
| 20260504041546 | 10 | 0.0 | 0.0 | 0.00 | 0.00 | 0.00 | 77 | 1009.3 | |
| 20260504040528 | 10 | 0.0 | 0.0 | 0.00 | 0.00 | 0.00 | 76 | 1009.3 | |
| 20260504035525 | 10 | 0.0 | 0.0 | 0.00 | 0.00 | 0.00 | 74 | 1009.3 | |
| 20260504034515 | 11 | 0.0 | 0.0 | 0.00 | 0.00 | 0.00 | 74 | 1009.4 | |
| 20260504033518 | 11 | 0.0 | 0.0 | 0.00 | 0.00 | 0.00 | 73 | 1009.5 | |
| 20260504032541 | 11 | 0.0 | 0.0 | 0.00 | 0.00 | 0.00 | 73 | 1009.5 | |
| 20260504031523 | 12 | 0.0 | 0.0 | 0.00 | 0.00 | 0.00 | 74 | 1009.5 | |
| 20260504030526 | 12 | 0.0 | 0.0 | 0.00 | 0.00 | 0.00 | 75 | 1009.5 | |
| 20260504025549 | 12 | 115 | 1.6 | 3.2 | 0.00 | 0.00 | 0.00 | 72 | 1009.4 |
| 20260504024531 | 13 | 0.0 | 3.2 | 0.00 | 0.00 | 0.00 | 67 | 1009.3 | |
| 20260504023537 | 13 | 109 | 3.2 | 3.2 | 0.00 | 0.00 | 0.00 | 64 | 1009.2 |
| 20260504022519 | 14 | 0.0 | 0.0 | 0.00 | 0.00 | 0.00 | 59 | 1009.1 | |
| 20260504021542 | 15 | 0.0 | 0.0 | 0.00 | 0.00 | 0.00 | 57 | 1009.0 | |
| 20260504020524 | 16 | 0.0 | 0.0 | 0.00 | 0.00 | 0.00 | 54 | 1009.0 | |
| 20260504015527 | 16 | 158 | 0.0 | 1.6 | 0.00 | 0.00 | 0.00 | 56 | 1009.0 |
| 20260504014530 | 17 | 0.0 | 0.0 | 0.00 | 0.00 | 0.00 | 50 | 1008.8 | |
| 20260504013532 | 18 | 0.0 | 0.0 | 0.00 | 0.00 | 0.00 | 48 | 1008.9 | |
| 20260504012517 | 18 | 177 | 1.6 | 3.2 | 0.00 | 0.00 | 0.00 | 46 | 1008.8 |
| 20260504011539 | 19 | 177 | 1.6 | 4.8 | 0.00 | 0.00 | 0.00 | 45 | 1008.7 |
| 20260504010522 | 20 | 141 | 1.6 | 4.8 | 0.00 | 0.00 | 0.00 | 44 | 1008.6 |
| 20260504005525 | 21 | 156 | 3.2 | 6.4 | 0.00 | 0.00 | 0.00 | 42 | 1008.6 |
| 20260504004541 | 21 | 148 | 3.2 | 6.4 | 0.00 | 0.00 | 0.00 | 41 | 1008.6 |
| 20260504003518 | 21 | 153 | 1.6 | 4.8 | 0.00 | 0.00 | 0.00 | 40 | 1008.6 |
| 20260504002532 | 22 | 116 | 4.8 | 8.0 | 0.00 | 0.00 | 0.00 | 38 | 1008.6 |
| 20260504001517 | 22 | 122 | 4.8 | 9.7 | 0.00 | 0.00 | 0.00 | 38 | 1008.5 |
| 20260504000520 | 22 | 129 | 8.0 | 12.9 | 0.00 | 0.00 | 0.00 | 38 | 1008.4 |
| 20260503235522 | 23 | 137 | 4.8 | 8.0 | 0.00 | 0.00 | 0.00 | 38 | 1008.4 |
| 20260503234525 | 23 | 122 | 6.4 | 11.3 | 0.00 | 0.00 | 0.00 | 36 | 1008.4 |
| 20260503233527 | 23 | 124 | 8.0 | 12.9 | 0.00 | 0.00 | 0.00 | 35 | 1008.3 |
| 20260503232550 | 23 | 135 | 12.9 | 16.1 | 0.00 | 0.00 | 0.00 | 35 | 1008.5 |
| 20260503231533 | 24 | 118 | 9.7 | 14.5 | 0.00 | 0.00 | 0.00 | 34 | 1008.3 |
| 20260503230517 | 24 | 134 | 9.7 | 14.5 | 0.00 | 0.00 | 0.00 | 36 | 1008.3 |
| 20260503225540 | 24 | 156 | 9.7 | 12.9 | 0.00 | 0.00 | 0.00 | 36 | 1008.4 |
| 20260503224522 | -17 | 90 | 11.3 | 11.3 | 0.00 | 0.00 | 0.00 | 1008.5 | |
| 20260503223525 | -17 | 0.0 | 0.0 | 0.00 | 0.00 | 0.00 | 1008.4 | ||
| 20260503222548 | 24 | 113 | 9.7 | 9.7 | 0.00 | 0.00 | 0.00 | 35 | 1008.2 |
| 20260503221550 | 25 | 139 | 8.0 | 12.9 | 0.00 | 0.00 | 0.00 | 36 | 1008.3 |
| 20260503220526 | 24 | 127 | 12.9 | 17.7 | 0.00 | 0.00 | 0.00 | 36 | 1008.2 |
| 20260503215517 | 25 | 129 | 11.3 | 16.1 | 0.00 | 0.00 | 0.00 | 37 | 1008.2 |
| 20260503214520 | 25 | 144 | 11.3 | 16.1 | 0.00 | 0.00 | 0.00 | 38 | 1008.1 |
| 20260503213517 | 25 | 137 | 9.7 | 14.5 | 0.00 | 0.00 | 0.00 | 38 | 1008.2 |
| 20260503212525 | 25 | 159 | 6.4 | 12.9 | 0.00 | 0.00 | 0.00 | 38 | 1008.3 |
| 20260503211527 | 25 | 128 | 11.3 | 14.5 | 0.00 | 0.00 | 0.00 | 38 | 1008.4 |
| 20260503210530 | 25 | 142 | 8.0 | 12.9 | 0.00 | 0.00 | 0.00 | 38 | 1008.4 |
| 20260503205532 | 25 | 116 | 9.7 | 14.5 | 0.00 | 0.00 | 0.00 | 38 | 1008.4 |
| 20260503204537 | 25 | 129 | 6.4 | 12.9 | 0.00 | 0.00 | 0.00 | 40 | 1008.5 |
| 20260503203540 | 25 | 92 | 6.4 | 9.7 | 0.00 | 0.00 | 0.00 | 41 | 1008.6 |
| 20260503202522 | 25 | 118 | 8.0 | 12.9 | 0.00 | 0.00 | 0.00 | 40 | 1008.8 |
| 20260503201526 | 25 | 139 | 9.7 | 16.1 | 0.00 | 0.00 | 0.00 | 40 | 1008.7 |
| 20260503200528 | 25 | 90 | 8.0 | 14.5 | 0.00 | 0.00 | 0.00 | 40 | 1008.6 |
| 20260503195531 | 25 | 131 | 9.7 | 19.3 | 0.00 | 0.00 | 0.00 | 42 | 1008.7 |
| 20260503194516 | 25 | 102 | 6.4 | 12.9 | 0.00 | 0.00 | 0.00 | 42 | 1009.0 |
| 20260503193538 | 24 | 145 | 8.0 | 12.9 | 0.00 | 0.00 | 0.00 | 42 | 1008.9 |
| 20260503192521 | 24 | 148 | 9.7 | 14.5 | 0.00 | 0.00 | 0.00 | 43 | 1009.0 |
| 20260503191523 | 24 | 115 | 8.0 | 12.9 | 0.00 | 0.00 | 0.00 | 45 | 1009.0 |
| 20260503190526 | 24 | 149 | 8.0 | 11.3 | 0.00 | 0.00 | 0.00 | 45 | 1009.0 |
| 20260503185522 | 24 | 141 | 11.3 | 19.3 | 0.00 | 0.00 | 0.00 | 45 | 1009.1 |
| 20260503184600 | 23 | 119 | 9.7 | 14.5 | 0.00 | 0.00 | 0.00 | 46 | 1009.3 |
| 20260503183517 | 23 | 154 | 8.0 | 16.1 | 0.00 | 0.00 | 0.00 | 47 | 1009.3 |
| 20260503182611 | 23 | 169 | 9.7 | 16.1 | 0.00 | 0.00 | 0.00 | 48 | 1009.6 |
| 20260503181516 | 23 | 103 | 9.7 | 17.7 | 0.00 | 0.00 | 0.00 | 49 | 1009.7 |
| 20260503180518 | 22 | 100 | 8.0 | 12.9 | 0.00 | 0.00 | 0.00 | 50 | 1009.9 |
| 20260503175521 | 22 | 124 | 8.0 | 12.9 | 0.00 | 0.00 | 0.00 | 50 | 1010.1 |
| 20260503174544 | 22 | 98 | 6.4 | 9.7 | 0.00 | 0.00 | 0.00 | 50 | 1010.2 |
| 20260503173526 | 21 | 113 | 9.7 | 14.5 | 0.00 | 0.00 | 0.00 | 50 | 1010.3 |
| 20260503172529 | 21 | 167 | 11.3 | 20.9 | 0.00 | 0.00 | 0.00 | 51 | 1010.3 |
| 20260503171531 | 21 | 135 | 6.4 | 8.0 | 0.00 | 0.00 | 0.00 | 53 | 1010.5 |
| 20260503170516 | 21 | 98 | 6.4 | 9.7 | 0.00 | 0.00 | 0.00 | 52 | 1010.6 |